| time (UTC) | temp F | wind direction | speed MPH | gust MPH | rain 1hr in | rain 24hr in | rain mn in | humidity % | barometer mb |
| 20260901161506 | 63 | 144 | 1.0 | 5.0 | 0.00 | 0.00 | 0.00 | 48 | 1017.1 |
| 20260901161004 | 62 | 140 | 2.0 | 5.0 | 0.00 | 0.00 | 0.00 | 50 | 1017.0 |
| 20260901160505 | 61 | 148 | 3.0 | 6.0 | 0.00 | 0.00 | 0.00 | 49 | 1016.9 |
| 20260901155505 | 61 | 129 | 2.0 | 6.0 | 0.00 | 0.00 | 0.00 | 51 | 1016.8 |
| 20260901155006 | 60 | 193 | 2.0 | 6.0 | 0.00 | 0.00 | 0.00 | 51 | 1016.8 |
| 20260901154505 | 60 | 234 | 2.0 | 5.0 | 0.00 | 0.00 | 0.00 | 53 | 1016.7 |
| 20260901154006 | 60 | 136 | 1.0 | 4.0 | 0.00 | 0.00 | 0.00 | 53 | 1016.7 |
| 20260901153506 | 59 | 141 | 1.0 | 4.0 | 0.00 | 0.00 | 0.00 | 54 | 1016.6 |
| 20260901153004 | 59 | 207 | 2.0 | 3.0 | 0.00 | 0.00 | 0.00 | 54 | 1016.5 |
| 20260901152503 | 59 | 152 | 2.0 | 4.0 | 0.00 | 0.00 | 0.00 | 54 | 1016.5 |
| 20260901151004 | 59 | 136 | 1.0 | 4.0 | 0.00 | 0.00 | 0.00 | 55 | 1016.3 |
| 20260901150504 | 59 | 148 | 1.0 | 5.0 | 0.00 | 0.00 | 0.00 | 54 | 1016.2 |
| 20260901150010 | 59 | 170 | 1.0 | 5.0 | 0.00 | 0.00 | 0.00 | 54 | 1016.2 |
| 20260901145504 | 58 | 128 | 1.0 | 3.0 | 0.00 | 0.00 | 0.00 | 55 | 1016.2 |
| 20260901145004 | 59 | 252 | 1.0 | 3.0 | 0.00 | 0.00 | 0.00 | 55 | 1016.0 |
| 20260901144504 | 58 | 127 | 1.0 | 4.0 | 0.00 | 0.00 | 0.00 | 57 | 1016.0 |
| 20260901144004 | 57 | 143 | 1.0 | 4.0 | 0.00 | 0.00 | 0.00 | 57 | 1016.0 |
| 20260901143504 | 56 | 150 | 0.0 | 3.0 | 0.00 | 0.00 | 0.00 | 60 | 1015.9 |
| 20260901143006 | 56 | 136 | 0.0 | 0.0 | 0.00 | 0.00 | 0.00 | 61 | 1016.0 |
| 20260901142005 | 54 | 136 | 0.0 | 1.0 | 0.00 | 0.00 | 0.00 | 63 | 1015.9 |
| 20260901141504 | 53 | 136 | 0.0 | 1.0 | 0.00 | 0.00 | 0.00 | 63 | 1015.8 |
| 20260901141006 | 54 | 137 | 0.0 | 0.0 | 0.00 | 0.00 | 0.00 | 62 | 1015.8 |
| 20260901140504 | 54 | 136 | 0.0 | 1.0 | 0.00 | 0.00 | 0.00 | 60 | 1015.7 |
| 20260901140003 | 54 | 136 | 0.0 | 1.0 | 0.00 | 0.00 | 0.00 | 60 | 1015.6 |
| 20260901135504 | 53 | 281 | 0.0 | 0.0 | 0.00 | 0.00 | 0.00 | 60 | 1015.6 |
| 20260901134004 | 53 | 281 | 0.0 | 0.0 | 0.00 | 0.00 | 0.00 | 59 | 1015.5 |
| 20260901133508 | 53 | 281 | 0.0 | 0.0 | 0.00 | 0.00 | 0.00 | 58 | 1015.6 |
| 20260901133009 | 54 | 281 | 0.0 | 0.0 | 0.00 | 0.00 | 0.00 | 59 | 1015.6 |
| 20260901132505 | 54 | 281 | 0.0 | 0.0 | 0.00 | 0.00 | 0.00 | 59 | 1015.6 |
| 20260901132006 | 54 | 281 | 0.0 | 0.0 | 0.00 | 0.00 | 0.00 | 60 | 1015.5 |
| 20260901131504 | 53 | 281 | 0.0 | 0.0 | 0.00 | 0.00 | 0.00 | 62 | 1015.5 |
| 20260901131007 | 53 | 281 | 0.0 | 0.0 | 0.00 | 0.00 | 0.00 | 63 | 1015.5 |
| 20260901130007 | 54 | 281 | 0.0 | 0.0 | 0.00 | 0.00 | 0.00 | 61 | 1015.6 |
| 20260901125505 | 54 | 281 | 0.0 | 0.0 | 0.00 | 0.00 | 0.00 | 62 | 1015.6 |
| 20260901125004 | 54 | 281 | 0.0 | 1.0 | 0.00 | 0.00 | 0.00 | 63 | 1015.6 |
| 20260901124505 | 54 | 281 | 0.0 | 1.0 | 0.00 | 0.00 | 0.00 | 63 | 1015.6 |
| 20260901124005 | 54 | 281 | 0.0 | 0.0 | 0.00 | 0.00 | 0.00 | 63 | 1015.4 |
| 20260901123505 | 54 | 281 | 0.0 | 0.0 | 0.00 | 0.00 | 0.00 | 62 | 1015.5 |
| 20260901123005 | 54 | 281 | 0.0 | 0.0 | 0.00 | 0.00 | 0.00 | 62 | 1015.5 |
| 20260901122504 | 54 | 281 | 0.0 | 0.0 | 0.00 | 0.00 | 0.00 | 63 | 1015.5 |
| 20260901122003 | 54 | 281 | 0.0 | 0.0 | 0.00 | 0.00 | 0.00 | 62 | 1015.5 |
| 20260901120504 | 55 | 281 | 0.0 | 1.0 | 0.00 | 0.00 | 0.00 | 61 | 1015.5 |
| 20260901120007 | 55 | 281 | 0.0 | 1.0 | 0.00 | 0.00 | 0.00 | 61 | 1015.6 |
| 20260901115503 | 55 | 297 | 0.0 | 1.0 | 0.00 | 0.00 | 0.00 | 61 | 1015.4 |
| 20260901114505 | 55 | 297 | 0.0 | 0.0 | 0.00 | 0.00 | 0.00 | 60 | 1015.4 |
| 20260901113505 | 55 | 297 | 0.0 | 0.0 | 0.00 | 0.00 | 0.00 | 60 | 1015.5 |
| 20260901113004 | 55 | 297 | 0.0 | 0.0 | 0.00 | 0.00 | 0.00 | 59 | 1015.4 |
| 20260901112504 | 55 | 297 | 0.0 | 0.0 | 0.00 | 0.00 | 0.00 | 58 | 1015.5 |
| 20260901112010 | 55 | 297 | 0.0 | 1.0 | 0.00 | 0.00 | 0.00 | 58 | 1015.4 |
| 20260901111505 | 55 | 297 | 0.0 | 1.0 | 0.00 | 0.00 | 0.00 | 59 | 1015.4 |
| 20260901111004 | 55 | 297 | 0.0 | 1.0 | 0.00 | 0.00 | 0.00 | 58 | 1015.3 |
| 20260901110508 | 55 | 297 | 0.0 | 1.0 | 0.00 | 0.00 | 0.00 | 58 | 1015.3 |
| 20260901110007 | 55 | 297 | 0.0 | 1.0 | 0.00 | 0.00 | 0.00 | 57 | 1015.5 |
| 20260901105504 | 54 | 297 | 0.0 | 1.0 | 0.00 | 0.00 | 0.00 | 56 | 1015.4 |
| 20260901105006 | 54 | 297 | 0.0 | 0.0 | 0.00 | 0.00 | 0.00 | 56 | 1015.5 |
| 20260901104504 | 55 | 297 | 0.0 | 1.0 | 0.00 | 0.00 | 0.00 | 55 | 1015.6 |
| 20260901104004 | 54 | 297 | 0.0 | 1.0 | 0.00 | 0.00 | 0.00 | 54 | 1015.5 |
| 20260901103505 | 54 | 297 | 0.0 | 1.0 | 0.00 | 0.00 | 0.00 | 53 | 1015.5 |
| 20260901103007 | 54 | 297 | 0.0 | 1.0 | 0.00 | 0.00 | 0.00 | 52 | 1015.6 |
| 20260901102004 | 55 | 297 | 0.0 | 1.0 | 0.00 | 0.00 | 0.00 | 50 | 1015.5 |
| 20260901101506 | 55 | 297 | 0.0 | 0.0 | 0.00 | 0.00 | 0.00 | 50 | 1015.7 |
| 20260901101005 | 55 | 297 | 0.0 | 1.0 | 0.00 | 0.00 | 0.00 | 49 | 1015.6 |
| 20260901100502 | 55 | 297 | 0.0 | 1.0 | 0.00 | 0.00 | 0.00 | 50 | 1015.6 |
| 20260901095505 | 56 | 297 | 0.0 | 0.0 | 0.00 | 0.00 | 0.00 | 47 | 1015.7 |
| 20260901095006 | 56 | 297 | 0.0 | 0.0 | 0.00 | 0.00 | 0.00 | 48 | 1015.7 |
| 20260901094504 | 56 | 297 | 0.0 | 0.0 | 0.00 | 0.00 | 0.00 | 50 | 1015.7 |
| 20260901094007 | 56 | 297 | 0.0 | 0.0 | 0.00 | 0.00 | 0.00 | 50 | 1015.8 |
| 20260901093505 | 55 | 297 | 0.0 | 0.0 | 0.00 | 0.00 | 0.00 | 52 | 1015.9 |
| 20260901092504 | 55 | 298 | 0.0 | 0.0 | 0.00 | 0.00 | 0.00 | 56 | 1016.0 |
| 20260901091500 | 55 | 264 | 0.0 | 0.0 | 0.00 | 0.00 | 0.00 | 55 | 1016.1 |
| 20260901091005 | 55 | 264 | 0.0 | 1.0 | 0.00 | 0.00 | 0.00 | 56 | 1016.2 |
| 20260901090504 | 55 | 265 | 0.0 | 1.0 | 0.00 | 0.00 | 0.00 | 56 | 1016.2 |
| 20260901090003 | 55 | 264 | 0.0 | 1.0 | 0.00 | 0.00 | 0.00 | 60 | 1016.1 |
| 20260901085503 | 55 | 264 | 0.0 | 0.0 | 0.00 | 0.00 | 0.00 | 61 | 1016.2 |
| 20260901085004 | 55 | 265 | 0.0 | 0.0 | 0.00 | 0.00 | 0.00 | 61 | 1016.2 |
| 20260901084504 | 55 | 265 | 0.0 | 0.0 | 0.00 | 0.00 | 0.00 | 60 | 1016.3 |
| 20260901084005 | 55 | 265 | 0.0 | 0.0 | 0.00 | 0.00 | 0.00 | 60 | 1016.1 |
| 20260901083503 | 55 | 264 | 0.0 | 0.0 | 0.00 | 0.00 | 0.00 | 60 | 1016.2 |
| 20260901082503 | 56 | 264 | 0.0 | 1.0 | 0.00 | 0.00 | 0.00 | 58 | 1016.2 |
| 20260901082007 | 56 | 265 | 0.0 | 1.0 | 0.00 | 0.00 | 0.00 | 58 | 1016.2 |
| 20260901081504 | 56 | 265 | 0.0 | 1.0 | 0.00 | 0.00 | 0.00 | 59 | 1016.1 |
| 20260901081004 | 56 | 264 | 0.0 | 0.0 | 0.00 | 0.00 | 0.00 | 59 | 1016.0 |
| 20260901080505 | 56 | 264 | 0.0 | 0.0 | 0.00 | 0.00 | 0.00 | 58 | 1016.1 |
| 20260901080008 | 56 | 264 | 0.0 | 0.0 | 0.00 | 0.00 | 0.00 | 59 | 1016.0 |
| 20260901075004 | 55 | 264 | 0.0 | 0.0 | 0.00 | 0.00 | 0.00 | 60 | 1016.0 |
| 20260901074504 | 55 | 265 | 0.0 | 0.0 | 0.00 | 0.00 | 0.00 | 60 | 1016.1 |
| 20260901074009 | 55 | 265 | 0.0 | 0.0 | 0.00 | 0.00 | 0.00 | 60 | 1016.0 |
| 20260901073004 | 55 | 265 | 0.0 | 0.0 | 0.00 | 0.00 | 0.00 | 60 | 1016.2 |
| 20260901072503 | 55 | 264 | 0.0 | 0.0 | 0.00 | 0.00 | 0.00 | 60 | 1016.2 |
| 20260901072005 | 55 | 265 | 0.0 | 0.0 | 0.00 | 0.00 | 0.00 | 60 | 1016.1 |
| 20260901071504 | 55 | 264 | 0.0 | 0.0 | 0.00 | 0.00 | 0.00 | 60 | 1016.2 |
| 20260901071006 | 55 | 264 | 0.0 | 0.0 | 0.00 | 0.00 | 0.00 | 59 | 1016.1 |
| 20260901070503 | 56 | 264 | 0.0 | 0.0 | 0.00 | 0.00 | 0.00 | 59 | 1016.0 |
| 20260901065008 | 56 | 265 | 0.0 | 0.0 | 0.00 | 0.00 | 0.00 | 58 | 1016.0 |
| 20260901064003 | 56 | 265 | 0.0 | 0.0 | 0.00 | 0.00 | 0.00 | 58 | 1016.1 |
| 20260901063503 | 56 | 264 | 0.0 | 0.0 | 0.00 | 0.00 | 0.00 | 59 | 1016.0 |
| 20260901063006 | 56 | 264 | 0.0 | 0.0 | 0.00 | 0.00 | 0.00 | 59 | 1016.0 |
| 20260901062504 | 55 | 264 | 0.0 | 0.0 | 0.00 | 0.00 | 0.00 | 59 | 1015.9 |
| 20260901062004 | 55 | 264 | 0.0 | 0.0 | 0.00 | 0.00 | 0.00 | 59 | 1016.0 |
| 20260901061505 | 55 | 264 | 0.0 | 0.0 | 0.00 | 0.00 | 0.00 | 59 | 1016.1 |
| 20260901061004 | 55 | 265 | 0.0 | 0.0 | 0.00 | 0.00 | 0.00 | 59 | 1016.0 |
| 20260901060503 | 55 | 265 | 0.0 | 0.0 | 0.00 | 0.00 | 0.00 | 59 | 1016.2 |
| 20260901060007 | 56 | 264 | 0.0 | 0.0 | 0.00 | 0.00 | 0.00 | 58 | 1016.2 |
| 20260901055504 | 55 | 264 | 0.0 | 0.0 | 0.00 | 0.00 | 0.00 | 59 | 1016.1 |
| 20260901055004 | 55 | 265 | 0.0 | 0.0 | 0.00 | 0.00 | 0.00 | 59 | 1016.1 |
| 20260901054507 | 55 | 265 | 0.0 | 0.0 | 0.00 | 0.00 | 0.00 | 59 | 1016.2 |
| 20260901054006 | 55 | 264 | 0.0 | 0.0 | 0.00 | 0.00 | 0.00 | 59 | 1016.2 |
| 20260901053504 | 55 | 264 | 0.0 | 0.0 | 0.00 | 0.00 | 0.00 | 58 | 1016.2 |
| 20260901052006 | 56 | 264 | 0.0 | 0.0 | 0.00 | 0.00 | 0.00 | 57 | 1016.2 |
| 20260901051502 | 56 | 264 | 0.0 | 0.0 | 0.00 | 0.00 | 0.00 | 57 | 1016.0 |
| 20260901051005 | 57 | 264 | 0.0 | 0.0 | 0.00 | 0.00 | 0.00 | 56 | 1016.0 |
| 20260901050503 | 56 | 264 | 0.0 | 0.0 | 0.00 | 0.00 | 0.00 | 56 | 1015.9 |
| 20260901050008 | 57 | 265 | 0.0 | 0.0 | 0.00 | 0.00 | 0.00 | 57 | 1016.0 |
| 20260901045006 | 57 | 264 | 0.0 | 0.0 | 0.00 | 0.00 | 0.00 | 56 | 1016.0 |
| 20260901044006 | 58 | 264 | 0.0 | 0.0 | 0.00 | 0.00 | 0.00 | 55 | 1016.1 |
| 20260901043503 | 58 | 264 | 0.0 | 0.0 | 0.00 | 0.00 | 0.00 | 54 | 1016.0 |
| 20260901043005 | 59 | 265 | 0.0 | 0.0 | 0.00 | 0.00 | 0.00 | 53 | 1016.0 |
| 20260901042504 | 59 | 264 | 0.0 | 1.0 | 0.00 | 0.00 | 0.00 | 53 | 1016.0 |
| 20260901042005 | 59 | 264 | 0.0 | 1.0 | 0.00 | 0.00 | 0.00 | 53 | 1016.0 |
| 20260901041503 | 58 | 264 | 0.0 | 1.0 | 0.00 | 0.00 | 0.00 | 54 | 1016.0 |
| 20260901041004 | 58 | 264 | 0.0 | 0.0 | 0.00 | 0.00 | 0.00 | 55 | 1015.9 |
| 20260901040006 | 59 | 264 | 0.0 | 0.0 | 0.00 | 0.00 | 0.00 | 53 | 1016.0 |
| 20260901035006 | 59 | 264 | 0.0 | 0.0 | 0.00 | 0.00 | 0.00 | 53 | 1016.0 |
| 20260901034005 | 60 | 264 | 0.0 | 1.0 | 0.00 | 0.00 | 0.00 | 53 | 1015.9 |
| 20260901033504 | 60 | 264 | 0.0 | 0.0 | 0.00 | 0.00 | 0.00 | 52 | 1015.8 |
| 20260901033006 | 60 | 265 | 0.0 | 0.0 | 0.00 | 0.00 | 0.00 | 52 | 1015.9 |
| 20260901032505 | 60 | 264 | 0.0 | 0.0 | 0.00 | 0.00 | 0.00 | 52 | 1015.9 |
| 20260901032006 | 60 | 264 | 0.0 | 0.0 | 0.00 | 0.00 | 0.00 | 53 | 1015.9 |
| 20260901031504 | 60 | 265 | 0.0 | 0.0 | 0.00 | 0.00 | 0.00 | 53 | 1015.9 |
| 20260901031005 | 61 | 265 | 0.0 | 0.0 | 0.00 | 0.00 | 0.00 | 53 | 1015.9 |
| 20260901030504 | 61 | 264 | 0.0 | 0.0 | 0.00 | 0.00 | 0.00 | 53 | 1015.8 |
| 20260901030007 | 62 | 264 | 0.0 | 0.0 | 0.00 | 0.00 | 0.00 | 52 | 1015.8 |
| 20260901025504 | 62 | 264 | 0.0 | 0.0 | 0.00 | 0.00 | 0.00 | 51 | 1015.7 |
| 20260901024504 | 63 | 264 | 0.0 | 0.0 | 0.00 | 0.00 | 0.00 | 50 | 1015.6 |
| 20260901023006 | 64 | 264 | 0.0 | 1.0 | 0.00 | 0.00 | 0.00 | 47 | 1015.5 |
| 20260901022504 | 64 | 264 | 0.0 | 1.0 | 0.00 | 0.00 | 0.00 | 47 | 1015.5 |
| 20260901022006 | 65 | 265 | 0.0 | 0.0 | 0.00 | 0.00 | 0.00 | 46 | 1015.5 |
| 20260901021504 | 65 | 264 | 0.0 | 0.0 | 0.00 | 0.00 | 0.00 | 45 | 1015.6 |
| 20260901021005 | 66 | 265 | 0.0 | 0.0 | 0.00 | 0.00 | 0.00 | 45 | 1015.6 |
| 20260901020007 | 66 | 264 | 0.0 | 0.0 | 0.00 | 0.00 | 0.00 | 42 | 1015.6 |
| 20260901015504 | 67 | 264 | 0.0 | 0.0 | 0.00 | 0.00 | 0.00 | 41 | 1015.7 |
| 20260901015004 | 67 | 264 | 0.0 | 0.0 | 0.00 | 0.00 | 0.00 | 40 | 1015.7 |
| 20260901014504 | 67 | 265 | 0.0 | 0.0 | 0.00 | 0.00 | 0.00 | 39 | 1015.7 |
| 20260901014004 | 68 | 235 | 0.0 | 1.0 | 0.00 | 0.00 | 0.00 | 39 | 1015.7 |
| 20260901013504 | 68 | 234 | 0.0 | 1.0 | 0.00 | 0.00 | 0.00 | 38 | 1015.7 |
| 20260901013006 | 68 | 235 | 0.0 | 1.0 | 0.00 | 0.00 | 0.00 | 38 | 1015.8 |
| 20260901012504 | 69 | 235 | 0.0 | 2.0 | 0.00 | 0.00 | 0.00 | 37 | 1015.9 |
| 20260901012009 | 69 | 232 | 0.0 | 3.0 | 0.00 | 0.00 | 0.00 | 36 | 1015.9 |
| 20260901011005 | 70 | 107 | 0.0 | 2.0 | 0.00 | 0.00 | 0.00 | 36 | 1015.8 |
| 20260901010504 | 70 | 117 | 1.0 | 2.0 | 0.00 | 0.00 | 0.00 | 36 | 1015.9 |
| 20260901010008 | 70 | 271 | 1.0 | 3.0 | 0.00 | 0.00 | 0.00 | 35 | 1015.9 |
| 20260901005502 | 70 | 233 | 0.0 | 3.0 | 0.00 | 0.00 | 0.00 | 35 | 1015.8 |
| 20260901005005 | 71 | 243 | 0.0 | 3.0 | 0.00 | 0.00 | 0.00 | 34 | 1015.9 |
| 20260901004505 | 71 | 188 | 0.0 | 1.0 | 0.00 | 0.00 | 0.00 | 34 | 1015.8 |
| 20260901004004 | 71 | 231 | 0.0 | 2.0 | 0.00 | 0.00 | 0.00 | 35 | 1015.9 |
| 20260901003503 | 72 | 271 | 0.0 | 2.0 | 0.00 | 0.00 | 0.00 | 34 | 1015.9 |
| 20260901003005 | 72 | 206 | 0.0 | 2.0 | 0.00 | 0.00 | 0.00 | 34 | 1016.0 |
| 20260901002504 | 72 | 127 | 1.0 | 4.0 | 0.00 | 0.00 | 0.00 | 34 | 1016.0 |
| 20260901002005 | 73 | 149 | 1.0 | 4.0 | 0.00 | 0.00 | 0.00 | 33 | 1016.0 |
| 20260901001504 | 73 | 141 | 1.0 | 4.0 | 0.00 | 0.00 | 0.00 | 33 | 1016.1 |
| 20260901000501 | 74 | 131 | 2.0 | 7.0 | 0.00 | 0.00 | 0.00 | 32 | 1016.0 |
| 20260901000008 | 75 | 169 | 1.0 | 4.0 | 0.00 | 0.00 | 0.00 | 31 | 1016.0 |
| 20260831235503 | 75 | 96 | 1.0 | 4.0 | 0.00 | 0.00 | 0.00 | 30 | 1016.1 |
| 20260831235005 | 76 | 256 | 1.0 | 5.0 | 0.00 | 0.00 | 0.00 | 30 | 1016.0 |
| 20260831234504 | 76 | 140 | 2.0 | 5.0 | 0.00 | 0.00 | 0.00 | 29 | 1016.1 |
| 20260831233503 | 77 | 135 | 1.0 | 7.0 | 0.00 | 0.00 | 0.00 | 30 | 1016.2 |
| 20260831233005 | 77 | 266 | 1.0 | 7.0 | 0.00 | 0.00 | 0.00 | 30 | 1016.2 |
| 20260831232502 | 77 | 200 | 2.0 | 5.0 | 0.00 | 0.00 | 0.00 | 29 | 1016.2 |
| 20260831232005 | 77 | 270 | 2.0 | 5.0 | 0.00 | 0.00 | 0.00 | 29 | 1016.3 |
| 20260831231501 | 77 | 124 | 2.0 | 7.0 | 0.00 | 0.00 | 0.00 | 30 | 1016.2 |
| 20260831231006 | 78 | 259 | 1.0 | 7.0 | 0.00 | 0.00 | 0.00 | 30 | 1016.3 |
| 20260831230504 | 78 | 131 | 1.0 | 7.0 | 0.00 | 0.00 | 0.00 | 30 | 1016.3 |
| 20260831225504 | 77 | 210 | 2.0 | 7.0 | 0.00 | 0.00 | 0.00 | 30 | 1016.3 |
| 20260831225004 | 77 | 290 | 2.0 | 5.0 | 0.00 | 0.00 | 0.00 | 29 | 1016.3 |
| 20260831224503 | 77 | 290 | 2.0 | 8.0 | 0.00 | 0.00 | 0.00 | 29 | 1016.3 |
| 20260831224003 | 77 | 112 | 2.0 | 8.0 | 0.00 | 0.00 | 0.00 | 28 | 1016.4 |
| 20260831223501 | 78 | 137 | 2.0 | 7.0 | 0.00 | 0.00 | 0.00 | 29 | 1016.5 |
| 20260831223004 | 78 | 221 | 2.0 | 8.0 | 0.00 | 0.00 | 0.00 | 29 | 1016.5 |
| 20260831222504 | 79 | 139 | 2.0 | 8.0 | 0.00 | 0.00 | 0.00 | 29 | 1016.5 |
| 20260831222006 | 79 | 167 | 1.0 | 6.0 | 0.00 | 0.00 | 0.00 | 27 | 1016.4 |
| 20260831221504 | 80 | 295 | 1.0 | 5.0 | 0.00 | 0.00 | 0.00 | 28 | 1016.4 |
| 20260831220504 | 79 | 274 | 2.0 | 9.0 | 0.00 | 0.00 | 0.00 | 29 | 1016.4 |
| 20260831220026 | 79 | 131 | 2.0 | 7.0 | 0.00 | 0.00 | 0.00 | 28 | 1016.4 |
| 20260831215005 | 79 | 249 | 2.0 | 10.0 | 0.00 | 0.00 | 0.00 | 29 | 1016.5 |
| 20260831214505 | 79 | 310 | 2.0 | 8.0 | 0.00 | 0.00 | 0.00 | 30 | 1016.6 |
| 20260831214005 | 79 | 219 | 2.0 | 5.0 | 0.00 | 0.00 | 0.00 | 29 | 1016.7 |
| 20260831213504 | 79 | 215 | 2.0 | 5.0 | 0.00 | 0.00 | 0.00 | 30 | 1016.8 |
| 20260831213004 | 79 | 217 | 2.0 | 10.0 | 0.00 | 0.00 | 0.00 | 30 | 1016.9 |
| 20260831212005 | 80 | 92 | 2.0 | 11.0 | 0.00 | 0.00 | 0.00 | 30 | 1016.8 |
| 20260831211004 | 79 | 80 | 2.0 | 8.0 | 0.00 | 0.00 | 0.00 | 31 | 1016.6 |
| 20260831210507 | 79 | 232 | 3.0 | 7.0 | 0.00 | 0.00 | 0.00 | 33 | 1016.6 |
| 20260831205507 | 79 | 157 | 3.0 | 7.0 | 0.00 | 0.00 | 0.00 | 32 | 1016.6 |
| 20260831205003 | 80 | 143 | 2.0 | 7.0 | 0.00 | 0.00 | 0.00 | 31 | 1016.5 |
| 20260831204504 | 81 | 250 | 2.0 | 7.0 | 0.00 | 0.00 | 0.00 | 30 | 1016.4 |
| 20260831204008 | 80 | 300 | 2.0 | 7.0 | 0.00 | 0.00 | 0.00 | 31 | 1016.4 |
| 20260831203503 | 79 | 240 | 2.0 | 8.0 | 0.00 | 0.00 | 0.00 | 32 | 1016.4 |
| 20260831202505 | 79 | 94 | 3.0 | 13.0 | 0.00 | 0.00 | 0.00 | 31 | 1016.5 |
| 20260831202004 | 81 | 245 | 2.0 | 7.0 | 0.00 | 0.00 | 0.00 | 29 | 1016.6 |
| 20260831201504 | 80 | 10 | 2.0 | 7.0 | 0.00 | 0.00 | 0.00 | 31 | 1016.6 |
| 20260831201004 | 81 | 310 | 2.0 | 7.0 | 0.00 | 0.00 | 0.00 | 30 | 1016.8 |
| 20260831200504 | 80 | 200 | 2.0 | 8.0 | 0.00 | 0.00 | 0.00 | 30 | 1016.8 |
| 20260831195504 | 79 | 172 | 4.0 | 12.0 | 0.00 | 0.00 | 0.00 | 30 | 1016.9 |
| 20260831195004 | 78 | 159 | 4.0 | 12.0 | 0.00 | 0.00 | 0.00 | 30 | 1016.8 |
| 20260831194004 | 80 | 226 | 3.0 | 9.0 | 0.00 | 0.00 | 0.00 | 30 | 1017.0 |
| 20260831193504 | 79 | 258 | 3.0 | 8.0 | 0.00 | 0.00 | 0.00 | 29 | 1016.8 |
| 20260831193006 | 80 | 154 | 2.0 | 9.0 | 0.00 | 0.00 | 0.00 | 29 | 1017.0 |
| 20260831192504 | 79 | 258 | 3.0 | 9.0 | 0.00 | 0.00 | 0.00 | 30 | 1017.0 |
| 20260831192004 | 79 | 140 | 3.0 | 10.0 | 0.00 | 0.00 | 0.00 | 30 | 1016.9 |
| 20260831191503 | 80 | 139 | 2.0 | 10.0 | 0.00 | 0.00 | 0.00 | 30 | 1017.0 |
| 20260831191003 | 80 | 103 | 2.0 | 6.0 | 0.00 | 0.00 | 0.00 | 30 | 1017.0 |
| 20260831190500 | 79 | 203 | 2.0 | 6.0 | 0.00 | 0.00 | 0.00 | 30 | 1017.0 |
| 20260831190008 | 79 | 150 | 2.0 | 7.0 | 0.00 | 0.00 | 0.00 | 30 | 1017.1 |
| 20260831185005 | 78 | 215 | 3.0 | 6.0 | 0.00 | 0.00 | 0.00 | 31 | 1017.0 |
| 20260831184504 | 79 | 106 | 2.0 | 8.0 | 0.00 | 0.00 | 0.00 | 31 | 1017.0 |
| 20260831184004 | 79 | 174 | 2.0 | 8.0 | 0.00 | 0.00 | 0.00 | 30 | 1017.0 |
| 20260831183503 | 79 | 316 | 2.0 | 8.0 | 0.00 | 0.00 | 0.00 | 30 | 1017.0 |
| 20260831183004 | 78 | 261 | 3.0 | 7.0 | 0.00 | 0.00 | 0.00 | 31 | 1016.9 |
| 20260831182002 | 77 | 191 | 2.0 | 8.0 | 0.00 | 0.00 | 0.00 | 31 | 1016.9 |
| 20260831181501 | 78 | 194 | 2.0 | 8.0 | 0.00 | 0.00 | 0.00 | 30 | 1016.9 |
| 20260831181004 | 78 | 92 | 2.0 | 6.0 | 0.00 | 0.00 | 0.00 | 31 | 1016.9 |
| 20260831180504 | 78 | 136 | 1.0 | 5.0 | 0.00 | 0.00 | 0.00 | 32 | 1016.8 |
| 20260831180004 | 78 | 180 | 2.0 | 5.0 | 0.00 | 0.00 | 0.00 | 32 | 1016.9 |
| 20260831175504 | 77 | 153 | 2.0 | 7.0 | 0.00 | 0.00 | 0.00 | 33 | 1016.9 |
| 20260831175004 | 76 | 116 | 2.0 | 7.0 | 0.00 | 0.00 | 0.00 | 33 | 1016.9 |
| 20260831174503 | 77 | 116 | 1.0 | 7.0 | 0.00 | 0.00 | 0.00 | 32 | 1016.9 |
| 20260831174005 | 77 | 124 | 2.0 | 6.0 | 0.00 | 0.00 | 0.00 | 32 | 1017.0 |
| 20260831173503 | 77 | 170 | 2.0 | 5.0 | 0.00 | 0.00 | 0.00 | 33 | 1016.9 |
| 20260831173004 | 76 | 164 | 1.0 | 5.0 | 0.00 | 0.00 | 0.00 | 35 | 1016.9 |
| 20260831172505 | 76 | 126 | 1.0 | 5.0 | 0.00 | 0.00 | 0.00 | 36 | 1016.9 |
| 20260831172006 | 76 | 313 | 1.0 | 4.0 | 0.00 | 0.00 | 0.00 | 36 | 1016.9 |
| 20260831171505 | 76 | 219 | 1.0 | 4.0 | 0.00 | 0.00 | 0.00 | 36 | 1016.8 |
| 20260831171005 | 75 | 113 | 2.0 | 5.0 | 0.00 | 0.00 | 0.00 | 36 | 1016.7 |
| 20260831170503 | 75 | 203 | 2.0 | 6.0 | 0.00 | 0.00 | 0.00 | 36 | 1016.8 |
| 20260831170004 | 75 | 201 | 2.0 | 6.0 | 0.00 | 0.00 | 0.00 | 36 | 1016.7 |
| 20260831165504 | 75 | 206 | 2.0 | 6.0 | 0.00 | 0.00 | 0.00 | 36 | 1016.6 |
| 20260831165005 | 75 | 237 | 1.0 | 5.0 | 0.00 | 0.00 | 0.00 | 35 | 1016.6 |
| 20260831164004 | 75 | 73 | 1.0 | 4.0 | 0.00 | 0.00 | 0.00 | 36 | 1016.5 |
| 20260831163501 | 74 | 103 | 1.0 | 4.0 | 0.00 | 0.00 | 0.00 | 37 | 1016.5 |
| 20260831162504 | 74 | 215 | 1.0 | 5.0 | 0.00 | 0.00 | 0.00 | 40 | 1016.4 |
| 20260831162006 | 74 | 103 | 0.0 | 1.0 | 0.00 | 0.00 | 0.00 | 42 | 1016.4 |